Time,TemperatureF,DewpointF,PressureIn,WindDirection,WindDirectionDegrees,WindSpeedMPH,WindSpeedGustMPH,Humidity,HourlyPrecipIn,Conditions,Clouds,dailyrainin,SolarRadiationWatts/m^2,SoftwareType,DateUTC
2013-06-24 00:00:00,74.2,69.8,30.05,WNW,284,0.0,4.0,86,0.00,,---,0.00,0.00,VWS V14.01,2013-06-24 04:00:00,
2013-06-24 00:01:00,74.3,69.5,30.05,WNW,284,0.0,4.0,85,0.00,,---,0.00,0.00,VWS V14.01,2013-06-24 04:01:00,
2013-06-24 00:06:00,74.3,69.8,30.05,WNW,284,0.0,4.0,86,0.00,,---,0.00,0.00,VWS V14.01,2013-06-24 04:06:00,
2013-06-24 00:11:00,74.1,69.7,30.05,NW,317,0.0,2.0,86,0.00,,---,0.00,0.00,VWS V14.01,2013-06-24 04:11:00,
2013-06-24 00:16:00,74.0,69.6,30.05,NW,317,2.0,3.0,86,0.00,,---,0.00,0.00,VWS V14.01,2013-06-24 04:16:00,
2013-06-24 00:21:00,73.9,69.8,30.05,NW,317,0.0,3.0,87,0.00,,---,0.00,0.00,VWS V14.01,2013-06-24 04:21:00,
2013-06-24 00:26:00,73.9,69.8,30.05,NW,317,0.0,3.0,87,0.00,,---,0.00,0.00,VWS V14.01,2013-06-24 04:26:00,
2013-06-24 00:30:00,73.8,69.7,30.05,WNW,287,0.0,4.0,87,0.00,,---,0.00,0.00,VWS V14.01,2013-06-24 04:30:00,
2013-06-24 00:31:00,73.9,69.8,30.05,NW,317,0.0,3.0,87,0.00,,---,0.00,0.00,VWS V14.01,2013-06-24 04:31:00,
2013-06-24 00:36:00,73.9,69.8,30.05,WNW,287,0.0,4.0,87,0.00,,---,0.00,0.00,VWS V14.01,2013-06-24 04:36:00,
2013-06-24 00:41:00,73.8,69.7,30.05,SW,229,0.0,1.0,87,0.00,,---,0.00,0.00,VWS V14.01,2013-06-24 04:41:00,
2013-06-24 00:46:00,73.8,69.7,30.05,SW,229,0.0,1.0,87,0.00,,---,0.00,0.00,VWS V14.01,2013-06-24 04:46:00,
2013-06-24 00:51:00,73.7,69.6,30.05,NW,316,0.0,4.0,87,0.00,,---,0.00,0.00,VWS V14.01,2013-06-24 04:51:00,
2013-06-24 00:56:00,73.6,69.5,30.05,West,269,0.0,4.0,87,0.00,,---,0.00,0.00,VWS V14.01,2013-06-24 04:56:00,
2013-06-24 01:00:00,73.5,69.7,30.05,West,271,0.0,4.0,88,0.00,,---,0.00,0.00,VWS V14.01,2013-06-24 05:00:00,
2013-06-24 01:01:00,73.5,69.7,30.05,West,270,0.0,4.0,88,0.00,,---,0.00,0.00,VWS V14.01,2013-06-24 05:01:00,
2013-06-24 01:06:00,73.5,69.7,30.05,West,271,0.0,4.0,88,0.00,,---,0.00,0.00,VWS V14.01,2013-06-24 05:06:00,
2013-06-24 01:11:00,73.4,69.6,30.05,West,271,0.0,0.0,88,0.00,,---,0.00,0.00,VWS V14.01,2013-06-24 05:11:00,
2013-06-24 01:16:00,73.3,69.5,30.05,West,271,0.0,0.0,88,0.00,,---,0.00,0.00,VWS V14.01,2013-06-24 05:16:00,
2013-06-24 01:21:00,73.2,69.4,30.05,West,271,0.0,0.0,88,0.00,,---,0.00,0.00,VWS V14.01,2013-06-24 05:21:00,
2013-06-24 01:26:00,73.2,69.4,30.05,West,271,0.0,0.0,88,0.00,,---,0.00,0.00,VWS V14.01,2013-06-24 05:26:00,
2013-06-24 01:30:00,73.1,69.3,30.04,West,275,0.0,1.0,88,0.00,,---,0.00,0.00,VWS V14.01,2013-06-24 05:30:00,
2013-06-24 01:31:00,73.1,69.3,30.04,West,275,0.0,0.0,88,0.00,,---,0.00,0.00,VWS V14.01,2013-06-24 05:31:00,
2013-06-24 01:36:00,73.1,69.3,30.04,West,275,0.0,1.0,88,0.00,,---,0.00,0.00,VWS V14.01,2013-06-24 05:36:00,
2013-06-24 01:41:00,73.1,69.3,30.04,West,275,0.0,0.0,88,0.00,,---,0.00,0.00,VWS V14.01,2013-06-24 05:41:00,
2013-06-24 01:46:00,73.0,69.6,30.04,West,275,0.0,0.0,89,0.00,,---,0.00,0.00,VWS V14.01,2013-06-24 05:46:00,
2013-06-24 01:51:00,72.9,69.5,30.04,West,275,0.0,0.0,89,0.00,,---,0.00,0.00,VWS V14.01,2013-06-24 05:51:00,
2013-06-24 01:56:00,72.8,69.4,30.04,West,275,0.0,0.0,89,0.00,,---,0.00,0.00,VWS V14.01,2013-06-24 05:56:00,
2013-06-24 02:00:00,72.9,69.5,30.04,ESE,114,0.0,4.0,89,0.00,,---,0.00,0.00,VWS V14.01,2013-06-24 06:00:00,
2013-06-24 02:01:00,72.8,69.4,30.04,West,275,0.0,1.0,89,0.00,,---,0.00,0.00,VWS V14.01,2013-06-24 06:01:00,
2013-06-24 02:06:00,72.9,69.5,30.04,ESE,114,0.0,4.0,89,0.00,,---,0.00,0.00,VWS V14.01,2013-06-24 06:06:00,
2013-06-24 02:11:00,73.1,69.7,30.04,NNW,338,0.0,2.0,89,0.00,,---,0.00,0.00,VWS V14.01,2013-06-24 06:11:00,
2013-06-24 02:17:00,73.2,69.8,30.03,NE,53,0.0,2.0,89,0.00,,---,0.00,0.00,VWS V14.01,2013-06-24 06:17:00,
2013-06-24 02:22:00,73.3,69.9,30.03,ESE,112,3.0,3.0,89,0.00,,---,0.00,0.00,VWS V14.01,2013-06-24 06:22:00,
2013-06-24 02:27:00,73.3,69.9,30.03,SSW,202,0.0,3.0,89,0.00,,---,0.00,0.00,VWS V14.01,2013-06-24 06:27:00,
2013-06-24 02:30:00,73.1,69.3,30.03,SSW,202,0.0,3.0,88,0.00,,---,0.00,0.00,VWS V14.01,2013-06-24 06:30:00,
2013-06-24 02:32:00,73.3,69.9,30.03,SSW,202,0.0,3.0,89,0.00,,---,0.00,0.00,VWS V14.01,2013-06-24 06:32:00,
2013-06-24 02:37:00,73.1,69.3,30.03,SSW,202,0.0,3.0,88,0.00,,---,0.00,0.00,VWS V14.01,2013-06-24 06:37:00,
2013-06-24 02:42:00,73.0,69.6,30.03,SSW,202,0.0,0.0,89,0.00,,---,0.00,0.00,VWS V14.01,2013-06-24 06:42:00,
2013-06-24 02:47:00,72.9,69.5,30.03,SSW,202,0.0,2.0,89,0.00,,---,0.00,0.00,VWS V14.01,2013-06-24 06:47:00,
2013-06-24 02:52:00,72.8,69.4,30.03,SSW,202,0.0,2.0,89,0.00,,---,0.00,0.00,VWS V14.01,2013-06-24 06:52:00,
2013-06-24 02:57:00,72.6,69.2,30.03,SSW,202,0.0,2.0,89,0.00,,---,0.00,0.00,VWS V14.01,2013-06-24 06:57:00,
2013-06-24 03:00:00,72.2,69.1,30.03,SSW,202,0.0,2.0,90,0.00,,---,0.00,0.00,VWS V14.01,2013-06-24 07:00:00,
2013-06-24 03:02:00,72.5,69.1,30.03,SSW,202,0.0,2.0,89,0.00,,---,0.00,0.00,VWS V14.01,2013-06-24 07:02:00,
2013-06-24 03:07:00,72.2,69.1,30.03,SSW,202,0.0,0.0,90,0.00,,---,0.00,0.00,VWS V14.01,2013-06-24 07:07:00,
2013-06-24 03:12:00,71.9,68.8,30.03,SSW,202,0.0,0.0,90,0.00,,---,0.00,0.00,VWS V14.01,2013-06-24 07:12:00,
2013-06-24 03:17:00,71.7,68.9,30.03,SSW,202,0.0,1.0,91,0.00,,---,0.00,0.00,VWS V14.01,2013-06-24 07:17:00,
2013-06-24 03:22:00,71.5,68.7,30.03,SSW,202,0.0,1.0,91,0.00,,---,0.00,0.00,VWS V14.01,2013-06-24 07:22:00,
2013-06-24 03:27:00,71.3,68.5,30.03,SSW,202,0.0,1.0,91,0.00,,---,0.00,0.00,VWS V14.01,2013-06-24 07:27:00,
2013-06-24 03:30:00,70.8,68.4,30.03,SSW,202,0.0,1.0,92,0.00,,---,0.00,0.00,VWS V14.01,2013-06-24 07:30:00,
2013-06-24 03:33:00,71.0,68.2,30.03,SSW,202,0.0,1.0,91,0.00,,---,0.00,0.00,VWS V14.01,2013-06-24 07:33:00,
2013-06-24 03:38:00,70.8,68.4,30.03,SSW,202,0.0,0.0,92,0.00,,---,0.00,0.00,VWS V14.01,2013-06-24 07:38:00,
2013-06-24 03:43:00,70.6,68.2,30.03,SSW,202,0.0,0.0,92,0.00,,---,0.00,0.00,VWS V14.01,2013-06-24 07:43:00,
2013-06-24 03:48:00,70.5,68.4,30.02,SSW,202,0.0,0.0,93,0.00,,---,0.00,0.00,VWS V14.01,2013-06-24 07:48:00,
2013-06-24 03:54:00,70.4,68.3,30.03,SSW,202,0.0,0.0,93,0.00,,---,0.00,0.00,VWS V14.01,2013-06-24 07:54:00,
2013-06-24 03:59:00,70.3,68.2,30.03,SSW,202,0.0,0.0,93,0.00,,---,0.00,0.00,VWS V14.01,2013-06-24 07:59:00,
2013-06-24 04:00:00,70.1,68.0,30.02,SSW,202,0.0,0.0,93,0.00,,---,0.00,0.00,VWS V14.01,2013-06-24 08:00:00,
2013-06-24 04:04:00,70.2,68.1,30.02,SSW,202,0.0,0.0,93,0.00,,---,0.00,0.00,VWS V14.01,2013-06-24 08:04:00,
2013-06-24 04:09:00,70.0,67.9,30.02,SSW,202,0.0,0.0,93,0.00,,---,0.00,0.00,VWS V14.01,2013-06-24 08:09:00,
2013-06-24 04:14:00,69.9,67.8,30.02,SSW,202,0.0,0.0,93,0.00,,---,0.00,0.00,VWS V14.01,2013-06-24 08:14:00,
2013-06-24 04:19:00,69.8,68.0,30.02,SSW,202,0.0,0.0,94,0.00,,---,0.00,0.00,VWS V14.01,2013-06-24 08:19:00,
2013-06-24 04:24:00,69.7,67.9,30.02,SSW,202,0.0,0.0,94,0.00,,---,0.00,0.00,VWS V14.01,2013-06-24 08:24:00,
2013-06-24 04:29:00,69.5,67.7,30.02,SSW,202,0.0,0.0,94,0.00,,---,0.00,0.00,VWS V14.01,2013-06-24 08:29:00,
2013-06-24 04:30:00,69.3,67.2,30.02,SSW,202,0.0,0.0,93,0.00,,---,0.00,0.00,VWS V14.01,2013-06-24 08:30:00,
2013-06-24 04:34:00,69.4,67.6,30.02,SSW,202,0.0,0.0,94,0.00,,---,0.00,0.00,VWS V14.01,2013-06-24 08:34:00,
2013-06-24 04:39:00,69.2,67.1,30.02,SSW,202,0.0,0.0,93,0.00,,---,0.00,0.00,VWS V14.01,2013-06-24 08:39:00,
2013-06-24 04:44:00,68.8,67.0,30.02,SSW,202,0.0,0.0,94,0.00,,---,0.00,0.00,VWS V14.01,2013-06-24 08:44:00,
2013-06-24 04:49:00,68.7,66.9,30.03,SSW,202,0.0,0.0,94,0.00,,---,0.00,0.00,VWS V14.01,2013-06-24 08:49:00,
2013-06-24 04:54:00,68.5,66.7,30.03,SSW,202,0.0,0.0,94,0.00,,---,0.00,0.00,VWS V14.01,2013-06-24 08:54:00,
2013-06-24 05:00:00,68.4,66.6,30.03,SSW,202,0.0,0.0,94,0.00,,---,0.00,0.00,VWS V14.01,2013-06-24 09:00:00,
2013-06-24 05:05:00,68.2,66.4,30.03,SSW,202,0.0,0.0,94,0.00,,---,0.00,0.00,VWS V14.01,2013-06-24 09:05:00,
2013-06-24 05:10:00,68.1,66.6,30.02,SSW,202,0.0,0.0,95,0.00,,---,0.00,0.00,VWS V14.01,2013-06-24 09:10:00,
2013-06-24 05:15:00,67.9,66.1,30.03,SSW,202,0.0,0.0,94,0.00,,---,0.00,0.00,VWS V14.01,2013-06-24 09:15:00,
2013-06-24 05:20:00,67.8,66.3,30.03,SSW,202,0.0,0.0,95,0.00,,---,0.00,0.00,VWS V14.01,2013-06-24 09:20:00,
2013-06-24 05:25:00,67.7,66.2,30.03,SSW,202,0.0,0.0,95,0.00,,---,0.00,0.00,VWS V14.01,2013-06-24 09:25:00,
2013-06-24 05:30:00,67.7,66.2,30.03,SSW,202,0.0,0.0,95,0.00,,---,0.00,5.00,VWS V14.01,2013-06-24 09:30:00,
2013-06-24 05:35:00,67.7,66.2,30.03,SSW,202,0.0,0.0,95,0.00,,---,0.00,9.00,VWS V14.01,2013-06-24 09:35:00,
2013-06-24 05:41:00,67.5,66.0,30.03,SSW,202,0.0,0.0,95,0.00,,---,0.00,12.00,VWS V14.01,2013-06-24 09:41:00,
2013-06-24 05:46:00,67.5,66.0,30.03,SSW,202,0.0,0.0,95,0.00,,---,0.00,18.00,VWS V14.01,2013-06-24 09:46:00,
2013-06-24 05:51:00,67.6,66.4,30.03,SSW,202,0.0,0.0,96,0.00,,---,0.00,23.00,VWS V14.01,2013-06-24 09:51:00,
2013-06-24 05:56:00,67.6,66.4,30.04,SSW,202,0.0,0.0,96,0.00,,---,0.00,30.00,VWS V14.01,2013-06-24 09:56:00,
2013-06-24 06:00:00,67.6,66.4,30.04,SSW,202,0.0,0.0,96,0.00,,---,0.00,42.00,VWS V14.01,2013-06-24 10:00:00,
2013-06-24 06:01:00,67.6,66.4,30.04,SSW,202,0.0,0.0,96,0.00,,---,0.00,37.00,VWS V14.01,2013-06-24 10:01:00,
2013-06-24 06:06:00,67.6,66.4,30.04,SSW,202,0.0,0.0,96,0.00,,---,0.00,40.00,VWS V14.01,2013-06-24 10:06:00,
2013-06-24 06:11:00,67.7,66.5,30.04,SSW,202,0.0,0.0,96,0.00,,---,0.00,49.00,VWS V14.01,2013-06-24 10:11:00,
2013-06-24 06:16:00,67.8,66.6,30.03,SSW,202,0.0,0.0,96,0.00,,---,0.00,79.00,VWS V14.01,2013-06-24 10:16:00,
2013-06-24 06:21:00,68.1,66.9,30.04,SSW,202,0.0,0.0,96,0.00,,---,0.00,91.00,VWS V14.01,2013-06-24 10:21:00,
2013-06-24 06:26:00,68.5,67.3,30.04,SSW,202,0.0,0.0,96,0.00,,---,0.00,93.00,VWS V14.01,2013-06-24 10:26:00,
2013-06-24 06:30:00,69.3,68.1,30.04,SSW,202,0.0,0.0,96,0.00,,---,0.00,47.00,VWS V14.01,2013-06-24 10:30:00,
2013-06-24 06:31:00,68.8,67.6,30.04,SSW,202,0.0,0.0,96,0.00,,---,0.00,97.00,VWS V14.01,2013-06-24 10:31:00,
2013-06-24 06:37:00,69.2,68.0,30.04,SSW,202,0.0,0.0,96,0.00,,---,0.00,42.00,VWS V14.01,2013-06-24 10:37:00,
2013-06-24 06:42:00,69.4,67.9,30.04,SSW,202,0.0,0.0,95,0.00,,---,0.00,49.00,VWS V14.01,2013-06-24 10:42:00,
2013-06-24 06:47:00,69.6,68.1,30.05,SSW,202,0.0,0.0,95,0.00,,---,0.00,137.00,VWS V14.01,2013-06-24 10:47:00,
2013-06-24 06:52:00,70.0,68.5,30.05,SSW,202,0.0,0.0,95,0.00,,---,0.00,153.00,VWS V14.01,2013-06-24 10:52:00,
2013-06-24 06:58:00,70.4,68.9,30.05,SSW,202,0.0,0.0,95,0.00,,---,0.00,134.00,VWS V14.01,2013-06-24 10:58:00,
2013-06-24 07:00:00,71.0,69.2,30.05,SSW,202,0.0,0.0,94,0.00,,---,0.00,97.00,VWS V14.01,2013-06-24 11:00:00,
2013-06-24 07:03:00,70.7,68.9,30.05,SSW,202,0.0,0.0,94,0.00,,---,0.00,62.00,VWS V14.01,2013-06-24 11:03:00,
2013-06-24 07:08:00,71.0,69.2,30.05,SSW,202,0.0,0.0,94,0.00,,---,0.00,114.00,VWS V14.01,2013-06-24 11:08:00,
2013-06-24 07:13:00,71.3,69.2,30.05,SSW,202,0.0,0.0,93,0.00,,---,0.00,204.00,VWS V14.01,2013-06-24 11:13:00,
2013-06-24 07:18:00,71.8,69.7,30.05,SSW,202,0.0,0.0,93,0.00,,---,0.00,279.00,VWS V14.01,2013-06-24 11:18:00,
2013-06-24 07:23:00,72.4,70.3,30.05,SSW,202,0.0,0.0,93,0.00,,---,0.00,318.00,VWS V14.01,2013-06-24 11:23:00,
2013-06-24 07:28:00,73.1,70.3,30.05,SSW,202,0.0,0.0,91,0.00,,---,0.00,309.00,VWS V14.01,2013-06-24 11:28:00,
2013-06-24 07:30:00,74.2,70.8,30.05,SSW,202,0.0,0.0,89,0.00,,---,0.00,137.00,VWS V14.01,2013-06-24 11:30:00,
2013-06-24 07:33:00,73.9,70.8,30.05,SSW,202,0.0,0.0,90,0.00,,---,0.00,135.00,VWS V14.01,2013-06-24 11:33:00,
2013-06-24 07:38:00,74.2,70.8,30.05,SSW,202,0.0,0.0,89,0.00,,---,0.00,146.00,VWS V14.01,2013-06-24 11:38:00,
2013-06-24 07:43:00,74.5,71.1,30.05,SSW,202,0.0,0.0,89,0.00,,---,0.00,353.00,VWS V14.01,2013-06-24 11:43:00,
2013-06-24 07:48:00,75.1,71.3,30.05,SSW,202,0.0,1.0,88,0.00,,---,0.00,359.00,VWS V14.01,2013-06-24 11:48:00,
2013-06-24 07:53:00,75.7,71.6,30.05,South,171,0.0,1.0,87,0.00,,---,0.00,357.00,VWS V14.01,2013-06-24 11:53:00,
2013-06-24 07:58:00,76.2,71.7,30.05,East,84,0.0,2.0,86,0.00,,---,0.00,432.00,VWS V14.01,2013-06-24 11:58:00,
2013-06-24 08:00:00,77.2,72.0,30.05,NW,315,0.0,5.0,84,0.00,,---,0.00,508.00,VWS V14.01,2013-06-24 12:00:00,
2013-06-24 08:04:00,76.8,71.9,30.05,ESE,113,0.0,5.0,85,0.00,,---,0.00,492.00,VWS V14.01,2013-06-24 12:04:00,
2013-06-24 08:09:00,77.3,72.1,30.05,NW,315,0.0,0.0,84,0.00,,---,0.00,515.00,VWS V14.01,2013-06-24 12:09:00,
2013-06-24 08:14:00,77.7,72.5,30.05,SE,126,0.0,3.0,84,0.00,,---,0.00,325.00,VWS V14.01,2013-06-24 12:14:00,
2013-06-24 08:19:00,77.8,72.6,30.05,SE,127,0.0,3.0,84,0.00,,---,0.00,292.00,VWS V14.01,2013-06-24 12:19:00,
2013-06-24 08:24:00,77.7,72.1,30.05,West,269,0.0,3.0,83,0.00,,---,0.00,244.00,VWS V14.01,2013-06-24 12:24:00,
2013-06-24 08:29:00,77.6,72.0,30.05,West,269,0.0,3.0,83,0.00,,---,0.00,355.00,VWS V14.01,2013-06-24 12:29:00,
2013-06-24 08:30:00,77.9,72.3,30.04,ESE,115,0.0,3.0,83,0.00,,---,0.00,599.00,VWS V14.01,2013-06-24 12:30:00,
2013-06-24 08:34:00,77.8,72.2,30.05,West,271,0.0,3.0,83,0.00,,---,0.00,480.00,VWS V14.01,2013-06-24 12:34:00,
2013-06-24 08:39:00,78.0,72.4,30.05,ESE,115,0.0,0.0,83,0.00,,---,0.00,364.00,VWS V14.01,2013-06-24 12:39:00,
2013-06-24 08:44:00,77.8,71.9,30.05,WNW,290,0.0,3.0,82,0.00,,---,0.00,304.00,VWS V14.01,2013-06-24 12:44:00,
2013-06-24 08:49:00,78.1,72.5,30.05,WNW,290,0.0,3.0,83,0.00,,---,0.00,603.00,VWS V14.01,2013-06-24 12:49:00,
2013-06-24 08:54:00,78.3,73.1,30.05,SSW,200,0.0,3.0,84,0.00,,---,0.00,598.00,VWS V14.01,2013-06-24 12:54:00,
2013-06-24 08:59:00,78.4,73.2,30.05,SSW,200,0.0,3.0,84,0.00,,---,0.00,313.00,VWS V14.01,2013-06-24 12:59:00,
2013-06-24 09:00:00,78.6,72.7,30.05,NW,313,0.0,3.0,82,0.00,,---,0.00,388.00,VWS V14.01,2013-06-24 13:00:00,
2013-06-24 09:04:00,78.5,72.9,30.05,NW,309,0.0,3.0,83,0.00,,---,0.00,408.00,VWS V14.01,2013-06-24 13:04:00,
2013-06-24 09:09:00,78.6,72.3,30.05,NW,313,0.0,0.0,81,0.00,,---,0.00,207.00,VWS V14.01,2013-06-24 13:09:00,
2013-06-24 09:14:00,78.5,72.2,30.05,NW,313,0.0,0.0,81,0.00,,---,0.00,185.00,VWS V14.01,2013-06-24 13:14:00,
2013-06-24 09:20:00,78.3,72.7,30.05,NW,313,0.0,1.0,83,0.00,,---,0.00,192.00,VWS V14.01,2013-06-24 13:20:00,
2013-06-24 09:25:00,78.3,72.7,30.05,NW,313,0.0,1.0,83,0.00,,---,0.00,239.00,VWS V14.01,2013-06-24 13:25:00,
2013-06-24 09:30:00,78.4,71.3,30.05,NW,313,0.0,1.0,79,0.00,,---,0.00,207.00,VWS V14.01,2013-06-24 13:30:00,
2013-06-24 09:35:00,78.7,72.4,30.05,NW,313,0.0,1.0,81,0.00,,---,0.00,192.00,VWS V14.01,2013-06-24 13:35:00,
2013-06-24 09:40:00,78.7,72.4,30.05,NW,313,0.0,0.0,81,0.00,,---,0.00,183.00,VWS V14.01,2013-06-24 13:40:00,
2013-06-24 09:45:00,78.4,72.4,30.05,WNW,284,0.0,4.0,82,0.00,,---,0.00,195.00,VWS V14.01,2013-06-24 13:45:00,
2013-06-24 09:51:00,78.3,72.7,30.05,WNW,284,0.0,4.0,83,0.00,,---,0.00,221.00,VWS V14.01,2013-06-24 13:51:00,
2013-06-24 09:56:00,78.4,72.8,30.04,WNW,284,0.0,4.0,83,0.00,,---,0.00,742.00,VWS V14.01,2013-06-24 13:56:00,
2013-06-24 10:00:00,80.2,75.3,30.04,NW,304,0.0,4.0,85,0.00,,---,0.00,738.00,VWS V14.01,2013-06-24 14:00:00,
2013-06-24 10:01:00,79.1,73.5,30.04,NW,304,0.0,4.0,83,0.00,,---,0.00,673.00,VWS V14.01,2013-06-24 14:01:00,
2013-06-24 10:06:00,79.9,74.6,30.04,NW,304,0.0,4.0,84,0.00,,---,0.00,733.00,VWS V14.01,2013-06-24 14:06:00,
2013-06-24 10:11:00,80.9,74.5,30.04,ESE,104,0.0,5.0,81,0.00,,---,0.00,740.00,VWS V14.01,2013-06-24 14:11:00,
2013-06-24 10:16:00,81.4,73.9,30.03,ESE,104,0.0,5.0,78,0.00,,---,0.00,751.00,VWS V14.01,2013-06-24 14:16:00,
2013-06-24 10:21:00,81.9,74.0,30.04,ENE,73,1.0,5.0,77,0.00,,---,0.00,791.00,VWS V14.01,2013-06-24 14:21:00,
2013-06-24 10:26:00,82.6,74.7,30.04,ENE,72,0.0,5.0,77,0.00,,---,0.00,619.00,VWS V14.01,2013-06-24 14:26:00,
2013-06-24 10:30:00,83.2,74.1,30.04,NW,307,0.0,5.0,74,0.00,,---,0.00,865.00,VWS V14.01,2013-06-24 14:30:00,
2013-06-24 10:31:00,82.9,75.3,30.04,SSE,148,0.0,5.0,78,0.00,,---,0.00,821.00,VWS V14.01,2013-06-24 14:31:00,
2013-06-24 10:36:00,83.2,74.5,30.04,NW,307,2.0,5.0,75,0.00,,---,0.00,856.00,VWS V14.01,2013-06-24 14:36:00,
2013-06-24 10:41:00,83.6,75.6,30.03,ESE,119,0.0,4.0,77,0.00,,---,0.00,884.00,VWS V14.01,2013-06-24 14:41:00,
2013-06-24 10:46:00,84.1,74.1,30.03,West,261,0.0,6.0,72,0.00,,---,0.00,872.00,VWS V14.01,2013-06-24 14:46:00,
2013-06-24 10:51:00,84.2,72.5,30.04,West,263,5.0,7.0,68,0.00,,---,0.00,872.00,VWS V14.01,2013-06-24 14:51:00,
2013-06-24 10:56:00,84.0,73.2,30.03,West,262,0.0,7.0,70,0.00,,---,0.00,798.00,VWS V14.01,2013-06-24 14:56:00,
2013-06-24 11:00:00,84.5,73.2,30.04,WSW,255,3.0,7.0,69,0.00,,---,0.00,846.00,VWS V14.01,2013-06-24 15:00:00,
2013-06-24 11:02:00,84.3,74.7,30.03,West,263,0.0,7.0,73,0.00,,---,0.00,802.00,VWS V14.01,2013-06-24 15:02:00,
2013-06-24 11:07:00,84.5,73.2,30.04,West,273,4.0,7.0,69,0.00,,---,0.00,846.00,VWS V14.01,2013-06-24 15:07:00,
2013-06-24 11:12:00,84.7,73.4,30.04,West,279,0.0,6.0,69,0.00,,---,0.00,466.00,VWS V14.01,2013-06-24 15:12:00,
2013-06-24 11:17:00,84.5,72.3,30.03,WNW,286,4.0,6.0,67,0.00,,---,0.00,831.00,VWS V14.01,2013-06-24 15:17:00,
2013-06-24 11:22:00,84.7,73.4,30.03,WNW,292,0.0,6.0,69,0.00,,---,0.00,810.00,VWS V14.01,2013-06-24 15:22:00,
2013-06-24 11:27:00,85.1,72.5,30.03,NNE,26,0.0,6.0,66,0.00,,---,0.00,826.00,VWS V14.01,2013-06-24 15:27:00,
2013-06-24 11:30:00,85.3,73.1,30.03,ENE,62,1.0,8.0,67,0.00,,---,0.00,837.00,VWS V14.01,2013-06-24 15:30:00,
2013-06-24 11:32:00,85.2,73.9,30.03,WSW,246,0.0,8.0,69,0.00,,---,0.00,824.00,VWS V14.01,2013-06-24 15:32:00,
2013-06-24 11:37:00,85.3,73.1,30.03,ENE,62,1.0,8.0,67,0.00,,---,0.00,837.00,VWS V14.01,2013-06-24 15:37:00,
2013-06-24 11:42:00,85.6,74.3,30.03,WSW,257,6.0,6.0,69,0.00,,---,0.00,844.00,VWS V14.01,2013-06-24 15:42:00,
2013-06-24 11:47:00,85.5,72.8,30.03,West,266,0.0,6.0,66,0.00,,---,0.00,853.00,VWS V14.01,2013-06-24 15:47:00,
2013-06-24 11:52:00,85.1,72.5,30.03,West,268,1.0,6.0,66,0.00,,---,0.00,865.00,VWS V14.01,2013-06-24 15:52:00,
2013-06-24 11:57:00,85.2,73.0,30.03,WSW,258,0.0,6.0,67,0.00,,---,0.00,909.00,VWS V14.01,2013-06-24 15:57:00,
2013-06-24 12:00:00,85.9,74.1,30.03,West,281,0.0,7.0,68,0.00,,---,0.00,997.00,VWS V14.01,2013-06-24 16:00:00,
2013-06-24 12:03:00,85.7,73.9,30.03,WNW,294,0.0,7.0,68,0.00,,---,0.00,965.00,VWS V14.01,2013-06-24 16:03:00,
2013-06-24 12:08:00,86.0,73.8,30.03,West,270,0.0,5.0,67,0.00,,---,0.00,1004.00,VWS V14.01,2013-06-24 16:08:00,
2013-06-24 12:13:00,86.4,73.2,30.03,West,260,0.0,6.0,65,0.00,,---,0.00,835.00,VWS V14.01,2013-06-24 16:13:00,
2013-06-24 12:18:00,86.7,74.0,30.03,West,261,0.0,6.0,66,0.00,,---,0.00,976.00,VWS V14.01,2013-06-24 16:18:00,
2013-06-24 12:23:00,86.9,75.1,30.03,West,267,0.0,6.0,68,0.00,,---,0.00,998.00,VWS V14.01,2013-06-24 16:23:00,
2013-06-24 12:28:00,87.4,74.7,30.03,NW,310,3.0,6.0,66,0.00,,---,0.00,898.00,VWS V14.01,2013-06-24 16:28:00,
2013-06-24 12:30:00,87.8,75.0,30.03,West,263,0.0,6.0,66,0.00,,---,0.00,932.00,VWS V14.01,2013-06-24 16:30:00,
2013-06-24 12:33:00,87.7,74.0,30.03,West,269,1.0,6.0,64,0.00,,---,0.00,933.00,VWS V14.01,2013-06-24 16:33:00,
2013-06-24 12:38:00,87.8,74.1,30.03,West,263,0.0,1.0,64,0.00,,---,0.00,939.00,VWS V14.01,2013-06-24 16:38:00,
2013-06-24 12:43:00,87.4,73.7,30.03,West,277,0.0,10.0,64,0.00,,---,0.00,935.00,VWS V14.01,2013-06-24 16:43:00,
2013-06-24 12:48:00,87.0,74.3,30.03,West,269,0.0,10.0,66,0.00,,---,0.00,837.00,VWS V14.01,2013-06-24 16:48:00,
2013-06-24 12:53:00,87.2,73.1,30.02,West,278,0.0,10.0,63,0.00,,---,0.00,932.00,VWS V14.01,2013-06-24 16:53:00,
2013-06-24 12:58:00,87.3,73.2,30.03,NW,311,0.0,10.0,63,0.00,,---,0.00,1005.00,VWS V14.01,2013-06-24 16:58:00,
2013-06-24 13:00:00,87.9,73.3,30.02,WNW,288,5.0,10.0,62,0.00,,---,0.00,933.00,VWS V14.01,2013-06-24 17:00:00,
2013-06-24 13:04:00,87.6,73.5,30.02,NNW,335,0.0,10.0,63,0.00,,---,0.00,909.00,VWS V14.01,2013-06-24 17:04:00,
2013-06-24 13:09:00,88.0,73.4,30.02,WNW,286,0.0,5.0,62,0.00,,---,0.00,942.00,VWS V14.01,2013-06-24 17:09:00,
2013-06-24 13:14:00,88.0,73.8,30.02,West,281,0.0,6.0,63,0.00,,---,0.00,956.00,VWS V14.01,2013-06-24 17:14:00,
2013-06-24 13:19:00,88.1,74.4,30.02,West,273,5.0,6.0,64,0.00,,---,0.00,933.00,VWS V14.01,2013-06-24 17:19:00,
2013-06-24 13:24:00,88.1,73.4,30.02,NW,315,0.0,6.0,62,0.00,,---,0.00,531.00,VWS V14.01,2013-06-24 17:24:00,
2013-06-24 13:29:00,87.6,73.0,30.01,WNW,297,3.0,6.0,62,0.00,,---,0.00,341.00,VWS V14.01,2013-06-24 17:29:00,
2013-06-24 13:30:00,87.5,72.9,30.01,WNW,283,0.0,6.0,62,0.00,,---,0.00,522.00,VWS V14.01,2013-06-24 17:30:00,
2013-06-24 13:34:00,87.5,74.3,30.01,WNW,297,4.0,6.0,65,0.00,,---,0.00,940.00,VWS V14.01,2013-06-24 17:34:00,
2013-06-24 13:39:00,87.5,73.8,30.01,WNW,283,0.0,0.0,64,0.00,,---,0.00,522.00,VWS V14.01,2013-06-24 17:39:00,
2013-06-24 13:44:00,87.8,75.5,30.01,East,81,0.0,4.0,67,0.00,,---,0.00,515.00,VWS V14.01,2013-06-24 17:44:00,
2013-06-24 13:49:00,87.8,73.6,30.00,ENE,62,0.0,4.0,63,0.00,,---,0.00,793.00,VWS V14.01,2013-06-24 17:49:00,
2013-06-24 13:54:00,88.1,74.9,30.00,NNE,33,0.0,4.0,65,0.00,,---,0.00,793.00,VWS V14.01,2013-06-24 17:54:00,
2013-06-24 13:59:00,88.5,74.3,30.00,NNE,33,0.0,4.0,63,0.00,,---,0.00,844.00,VWS V14.01,2013-06-24 17:59:00,
2013-06-24 14:00:00,89.0,74.3,30.00,West,267,0.0,5.0,62,0.00,,---,0.00,613.00,VWS V14.01,2013-06-24 18:00:00,
2013-06-24 14:04:00,89.1,74.9,30.00,West,271,1.0,5.0,63,0.00,,---,0.00,686.00,VWS V14.01,2013-06-24 18:04:00,
2013-06-24 14:10:00,89.0,74.8,30.00,West,261,0.0,6.0,63,0.00,,---,0.00,888.00,VWS V14.01,2013-06-24 18:10:00,
2013-06-24 14:15:00,89.0,74.3,29.99,WNW,291,0.0,6.0,62,0.00,,---,0.00,909.00,VWS V14.01,2013-06-24 18:15:00,
2013-06-24 14:20:00,89.0,75.2,29.99,WNW,286,0.0,6.0,64,0.00,,---,0.00,838.00,VWS V14.01,2013-06-24 18:20:00,
2013-06-24 14:25:00,88.5,73.3,29.99,WNW,300,0.0,8.0,61,0.00,,---,0.00,246.00,VWS V14.01,2013-06-24 18:25:00,
2013-06-24 14:30:00,87.5,73.8,29.98,West,279,0.0,8.0,64,0.00,,---,0.00,299.00,VWS V14.01,2013-06-24 18:30:00,
2013-06-24 14:44:00,87.0,73.4,29.98,NW,306,0.0,8.0,64,0.00,,---,0.00,338.00,VWS V14.01,2013-06-24 18:44:00,
2013-06-24 14:49:00,86.1,74.3,29.98,West,269,0.0,8.0,68,0.00,,---,0.00,167.00,VWS V14.01,2013-06-24 18:49:00,
2013-06-24 14:55:00,85.6,74.3,29.97,West,269,0.0,8.0,69,0.00,,---,0.00,174.00,VWS V14.01,2013-06-24 18:55:00,
2013-06-24 15:00:00,85.4,73.6,29.98,ESE,107,0.0,8.0,68,0.00,,---,0.00,193.00,VWS V14.01,2013-06-24 19:00:00,
2013-06-24 15:05:00,85.2,74.3,29.97,ESE,107,0.0,8.0,70,0.00,,---,0.00,207.00,VWS V14.01,2013-06-24 19:05:00,
2013-06-24 15:10:00,85.0,74.6,29.97,ESE,107,0.0,0.0,71,0.00,,---,0.00,306.00,VWS V14.01,2013-06-24 19:10:00,
2013-06-24 15:15:00,85.0,75.0,29.97,ESE,107,0.0,1.0,72,0.00,,---,0.00,571.00,VWS V14.01,2013-06-24 19:15:00,
2013-06-24 15:20:00,85.8,74.9,29.96,West,272,0.0,1.0,70,0.00,,---,0.00,835.00,VWS V14.01,2013-06-24 19:20:00,
2013-06-24 15:25:00,87.0,75.2,29.96,West,273,0.0,3.0,68,0.00,,---,0.00,772.00,VWS V14.01,2013-06-24 19:25:00,
2013-06-24 15:30:00,88.0,76.1,29.95,NE,50,0.0,3.0,68,0.00,,---,0.00,705.00,VWS V14.01,2013-06-24 19:30:00,
2013-06-24 15:35:00,88.5,74.3,29.95,WSW,250,0.0,5.0,63,0.00,,---,0.00,717.00,VWS V14.01,2013-06-24 19:35:00,
2013-06-24 15:40:00,88.6,74.4,29.95,WSW,244,0.0,3.0,63,0.00,,---,0.00,708.00,VWS V14.01,2013-06-24 19:40:00,
2013-06-24 15:45:00,88.3,73.6,29.94,WSW,251,0.0,4.0,62,0.00,,---,0.00,580.00,VWS V14.01,2013-06-24 19:45:00,
2013-06-24 15:50:00,87.9,73.7,29.94,WNW,283,0.0,4.0,63,0.00,,---,0.00,116.00,VWS V14.01,2013-06-24 19:50:00,
2013-06-24 15:55:00,87.3,72.7,29.94,WNW,285,0.0,4.0,62,0.00,,---,0.00,93.00,VWS V14.01,2013-06-24 19:55:00,
2013-06-24 16:00:00,86.6,72.5,29.93,WNW,285,0.0,4.0,63,0.00,,---,0.00,111.00,VWS V14.01,2013-06-24 20:00:00,
2013-06-24 16:05:00,85.9,73.2,29.94,WNW,285,0.0,4.0,66,0.00,,---,0.00,118.00,VWS V14.01,2013-06-24 20:05:00,
2013-06-24 16:10:00,85.3,72.2,29.94,WNW,285,0.0,1.0,65,0.00,,---,0.00,111.00,VWS V14.01,2013-06-24 20:10:00,
2013-06-24 16:15:00,84.9,72.3,29.94,WNW,285,0.0,1.0,66,0.00,,---,0.00,135.00,VWS V14.01,2013-06-24 20:15:00,
2013-06-24 16:21:00,84.7,72.5,29.94,WNW,285,0.0,1.0,67,0.00,,---,0.00,123.00,VWS V14.01,2013-06-24 20:21:00,
2013-06-24 16:26:00,84.5,72.8,29.95,WNW,285,0.0,1.0,68,0.00,,---,0.00,81.00,VWS V14.01,2013-06-24 20:26:00,
2013-06-24 16:30:00,83.9,72.2,29.95,NW,304,0.0,3.0,68,0.00,,---,0.00,26.00,VWS V14.01,2013-06-24 20:30:00,
2013-06-24 16:31:00,84.1,72.0,29.96,WNW,285,0.0,3.0,67,0.00,,---,0.00,40.00,VWS V14.01,2013-06-24 20:31:00,
2013-06-24 16:36:00,83.9,72.7,29.95,NW,304,3.0,3.0,69,0.00,,---,0.00,28.00,VWS V14.01,2013-06-24 20:36:00,
2013-06-24 16:41:00,83.7,72.9,29.95,NW,304,0.0,0.0,70,0.00,,---,0.00,28.00,VWS V14.01,2013-06-24 20:41:00,
2013-06-24 16:46:00,83.4,73.0,29.94,NW,304,0.0,0.0,71,0.00,,---,0.00,33.00,VWS V14.01,2013-06-24 20:46:00,
2013-06-24 16:51:00,82.8,73.3,29.95,NW,304,0.0,0.0,73,0.00,,---,0.00,18.00,VWS V14.01,2013-06-24 20:51:00,
2013-06-24 16:57:00,82.6,72.2,29.96,West,273,4.0,9.0,71,0.00,,---,0.00,7.00,VWS V14.01,2013-06-24 20:57:00,
2013-06-24 17:00:00,76.5,66.4,29.98,SW,234,0.0,19.0,71,0.00,,---,0.00,7.00,VWS V14.01,2013-06-24 21:00:00,
2013-06-24 17:02:00,81.5,70.8,29.98,WNW,284,9.0,19.0,70,0.00,,---,0.00,5.00,VWS V14.01,2013-06-24 21:02:00,
2013-06-24 17:07:00,77.0,66.9,29.98,West,271,4.0,19.0,71,0.00,,---,0.00,5.00,VWS V14.01,2013-06-24 21:07:00,
2013-06-24 17:12:00,74.2,65.8,29.99,West,274,0.0,6.0,75,0.01,,---,0.01,7.00,VWS V14.01,2013-06-24 21:12:00,
2013-06-24 17:17:00,72.8,66.6,29.98,West,273,0.0,0.0,81,0.12,,---,0.12,12.00,VWS V14.01,2013-06-24 21:17:00,
2013-06-24 17:22:00,71.0,65.9,29.97,NE,55,0.0,3.0,84,0.16,,---,0.16,18.00,VWS V14.01,2013-06-24 21:22:00,
2013-06-24 17:27:00,69.8,66.4,29.96,NE,55,0.0,3.0,89,0.16,,---,0.16,23.00,VWS V14.01,2013-06-24 21:27:00,
2013-06-24 17:30:00,69.2,66.8,29.96,NE,55,0.0,3.0,92,0.17,,---,0.17,56.00,VWS V14.01,2013-06-24 21:30:00,
2013-06-24 17:32:00,69.4,66.7,29.96,NE,55,0.0,3.0,91,0.17,,---,0.17,33.00,VWS V14.01,2013-06-24 21:32:00,
2013-06-24 17:37:00,69.2,66.8,29.96,NE,55,0.0,3.0,92,0.17,,---,0.17,53.00,VWS V14.01,2013-06-24 21:37:00,
2013-06-24 17:42:00,69.0,66.6,29.96,NE,55,0.0,0.0,92,0.17,,---,0.17,72.00,VWS V14.01,2013-06-24 21:42:00,
2013-06-24 17:47:00,68.9,66.8,29.97,NE,55,0.0,0.0,93,0.17,,---,0.17,91.00,VWS V14.01,2013-06-24 21:47:00,
2013-06-24 17:52:00,69.2,67.4,29.97,NE,55,0.0,0.0,94,0.17,,---,0.17,100.00,VWS V14.01,2013-06-24 21:52:00,
2013-06-24 17:58:00,69.5,67.7,29.98,NE,55,0.0,0.0,94,0.17,,---,0.17,118.00,VWS V14.01,2013-06-24 21:58:00,
2013-06-24 18:00:00,69.5,68.0,29.98,NE,55,0.0,0.0,95,0.17,,---,0.17,104.00,VWS V14.01,2013-06-24 22:00:00,
2013-06-24 18:03:00,69.4,67.6,29.98,NE,55,0.0,0.0,94,0.17,,---,0.17,104.00,VWS V14.01,2013-06-24 22:03:00,
2013-06-24 18:08:00,69.6,68.1,29.98,NE,55,0.0,0.0,95,0.17,,---,0.17,104.00,VWS V14.01,2013-06-24 22:08:00,
2013-06-24 18:13:00,69.9,68.4,29.98,NE,55,0.0,0.0,95,0.17,,---,0.17,111.00,VWS V14.01,2013-06-24 22:13:00,
2013-06-24 18:18:00,70.1,68.3,29.98,NE,55,0.0,0.0,94,0.17,,---,0.17,109.00,VWS V14.01,2013-06-24 22:18:00,
2013-06-24 18:23:00,70.3,68.8,29.98,NE,55,0.0,0.0,95,0.17,,---,0.17,137.00,VWS V14.01,2013-06-24 22:23:00,
2013-06-24 18:28:00,70.6,69.1,29.99,NE,55,0.0,0.0,95,0.17,,---,0.17,149.00,VWS V14.01,2013-06-24 22:28:00,
2013-06-24 18:30:00,70.4,68.6,29.99,NE,55,0.0,0.0,94,0.17,,---,0.17,116.00,VWS V14.01,2013-06-24 22:30:00,
2013-06-24 18:34:00,70.4,68.6,29.99,NE,55,0.0,0.0,94,0.17,,---,0.17,134.00,VWS V14.01,2013-06-24 22:34:00,
2013-06-24 18:39:00,70.4,68.9,29.99,NE,55,0.0,0.0,95,0.00,,---,0.17,109.00,VWS V14.01,2013-06-24 22:39:00,
2013-06-24 18:44:00,70.4,68.6,29.98,NE,55,0.0,0.0,94,0.00,,---,0.17,58.00,VWS V14.01,2013-06-24 22:44:00,
2013-06-24 18:49:00,70.5,69.0,30.00,NNW,333,4.0,4.0,95,0.00,,---,0.17,25.00,VWS V14.01,2013-06-24 22:49:00,
2013-06-24 18:54:00,70.3,68.5,30.02,ENE,67,0.0,9.0,94,0.00,,---,0.17,0.00,VWS V14.01,2013-06-24 22:54:00,
2013-06-24 18:59:00,70.3,68.5,30.02,SE,137,0.0,9.0,94,0.00,,---,0.17,0.00,VWS V14.01,2013-06-24 22:59:00,
2013-06-24 19:00:00,69.9,67.2,30.02,West,268,0.0,9.0,91,0.00,,---,0.17,0.00,VWS V14.01,2013-06-24 23:00:00,
2013-06-24 19:04:00,70.3,68.2,30.01,North,349,0.0,9.0,93,0.00,,---,0.17,0.00,VWS V14.01,2013-06-24 23:04:00,
2013-06-24 19:09:00,69.9,67.2,30.02,West,268,0.0,0.0,91,0.00,,---,0.17,0.00,VWS V14.01,2013-06-24 23:09:00,
2013-06-24 19:14:00,69.5,66.4,30.02,West,274,4.0,5.0,90,0.00,,---,0.17,5.00,VWS V14.01,2013-06-24 23:14:00,
2013-06-24 19:19:00,69.2,66.2,30.02,WSW,245,0.0,9.0,90,0.01,,---,0.18,7.00,VWS V14.01,2013-06-24 23:19:00,
2013-06-24 19:24:00,68.8,66.1,30.02,WSW,245,0.0,9.0,91,0.01,,---,0.18,9.00,VWS V14.01,2013-06-24 23:24:00,
2013-06-24 19:29:00,68.5,66.1,30.01,WSW,245,0.0,9.0,92,0.01,,---,0.18,9.00,VWS V14.01,2013-06-24 23:29:00,
2013-06-24 19:30:00,68.3,66.2,30.02,WSW,245,0.0,9.0,93,0.01,,---,0.18,7.00,VWS V14.01,2013-06-24 23:30:00,
2013-06-24 19:34:00,68.3,65.9,30.01,WSW,245,0.0,9.0,92,0.01,,---,0.18,7.00,VWS V14.01,2013-06-24 23:34:00,
2013-06-24 19:39:00,68.3,66.2,30.02,WSW,245,0.0,0.0,93,0.01,,---,0.18,7.00,VWS V14.01,2013-06-24 23:39:00,
2013-06-24 19:44:00,68.3,66.5,30.02,WSW,245,0.0,0.0,94,0.01,,---,0.18,7.00,VWS V14.01,2013-06-24 23:44:00,
2013-06-24 19:49:00,68.2,66.4,30.01,WSW,245,0.0,0.0,94,0.01,,---,0.18,7.00,VWS V14.01,2013-06-24 23:49:00,
2013-06-24 19:54:00,68.1,66.3,30.02,WSW,245,0.0,0.0,94,0.01,,---,0.18,7.00,VWS V14.01,2013-06-24 23:54:00,
2013-06-24 19:59:00,68.0,66.2,30.01,WSW,245,0.0,0.0,94,0.01,,---,0.18,7.00,VWS V14.01,2013-06-24 23:59:00,
2013-06-24 20:00:00,68.0,66.2,30.01,WSW,245,0.0,0.0,94,0.01,,---,0.18,9.00,VWS V14.01,2013-06-25 00:00:00,
2013-06-24 20:05:00,68.1,66.6,30.01,WSW,245,0.0,0.0,95,0.01,,---,0.18,9.00,VWS V14.01,2013-06-25 00:05:00,
2013-06-24 20:10:00,68.0,66.2,30.01,WSW,245,0.0,0.0,94,0.01,,---,0.18,11.00,VWS V14.01,2013-06-25 00:10:00,
2013-06-24 20:15:00,67.9,66.4,30.01,WSW,245,0.0,0.0,95,0.01,,---,0.18,7.00,VWS V14.01,2013-06-25 00:15:00,
2013-06-24 20:20:00,68.0,66.5,30.01,WSW,245,0.0,0.0,95,0.01,,---,0.18,0.00,VWS V14.01,2013-06-25 00:20:00,
2013-06-24 20:25:00,67.9,66.4,30.01,WSW,245,0.0,0.0,95,0.01,,---,0.18,0.00,VWS V14.01,2013-06-25 00:25:00,
2013-06-24 20:30:00,67.7,66.2,30.01,WSW,245,0.0,0.0,95,0.01,,---,0.18,0.00,VWS V14.01,2013-06-25 00:30:00,
2013-06-24 20:35:00,67.6,66.1,30.01,WSW,245,0.0,0.0,95,0.01,,---,0.18,0.00,VWS V14.01,2013-06-25 00:35:00,
2013-06-24 20:40:00,67.5,66.0,30.00,WSW,245,0.0,0.0,95,0.00,,---,0.18,0.00,VWS V14.01,2013-06-25 00:40:00,
2013-06-24 20:45:00,67.3,65.8,30.00,WSW,245,0.0,0.0,95,0.00,,---,0.18,0.00,VWS V14.01,2013-06-25 00:45:00,
2013-06-24 20:50:00,67.1,65.6,30.00,WSW,245,0.0,0.0,95,0.00,,---,0.18,0.00,VWS V14.01,2013-06-25 00:50:00,
2013-06-24 20:55:00,66.9,65.4,30.00,WSW,245,0.0,0.0,95,0.00,,---,0.18,0.00,VWS V14.01,2013-06-25 00:55:00,
2013-06-24 21:00:00,66.7,65.2,30.00,WSW,245,0.0,0.0,95,0.00,,---,0.18,0.00,VWS V14.01,2013-06-25 01:00:00,
2013-06-24 21:30:00,67.6,66.1,30.00,WSW,245,0.0,0.0,95,0.01,,---,0.18,0.00,VWS V14.01,2013-06-25 01:30:00,
2013-06-24 22:00:00,66.5,65.0,30.01,WSW,245,0.0,0.0,95,0.00,,---,0.18,0.00,VWS V14.01,2013-06-25 02:00:00,